This is the latest recevied weather packets stored in our database for station/object K5MGY. If no packets are shown the sender has not sent any weather packets the latest 10 day(s).
| Time | Temp. | Humidity | Pressure | Rain* | Wind** | Luminosity | Snow |
|---|---|---|---|---|---|---|---|
| 1778086830 | 13.33° C | 86% | 1038.6 hPa | 0 mm | - | 78 W/m² | - |
| 1778086528 | 13.33° C | 87% | 1039.1 hPa | 0 mm | - | 98 W/m² | - |
| 1778086224 | 12.78° C | 86% | 1039.2 hPa | 0 mm | - | 55 W/m² | - |
| 1778085921 | 13.33° C | 86% | 1038.9 hPa | 0 mm | - | 56 W/m² | - |
| 1778085618 | 13.33° C | 86% | 1038.3 hPa | 0 mm | - | 51 W/m² | - |
| 1778085314 | 13.33° C | 86% | 1038.5 hPa | 0 mm | - | 40 W/m² | - |
| 1778085010 | 13.33° C | 87% | 1038.4 hPa | 0 mm | - | 53 W/m² | - |
| 1778084706 | 13.33° C | 86% | 1038.7 hPa | 0 mm | - | 52 W/m² | - |
| 1778084404 | 13.89° C | 85% | 1038.4 hPa | 0 mm | - | 63 W/m² | - |
| 1778084101 | 13.89° C | 87% | 1038.2 hPa | 0 mm | - | 108 W/m² | - |
| 1778083798 | 13.89° C | 87% | 1038.3 hPa | 0 mm | - | 121 W/m² | - |
| 1778083495 | 13.89° C | 89% | 1038.6 hPa | 0 mm | - | 118 W/m² | - |
| 1778083192 | 13.33° C | 90% | 1038.6 hPa | 0 mm | - | 229 W/m² | - |
| 1778082890 | 12.78° C | 89% | 1039 hPa | 0 mm | - | 124 W/m² | - |
| 1778081777 | 12.78° C | 90% | 1038.1 hPa | 0 mm | - | 95 W/m² | - |
| 1778081474 | 12.22° C | 90% | 1037.9 hPa | 0 mm | - | 98 W/m² | - |
| 1778081171 | 12.22° C | 90% | 1038.6 hPa | 0 mm | - | 59 W/m² | - |
| 1778080869 | 12.22° C | 89% | 1038.7 hPa | 0 mm | - | 52 W/m² | - |
| 1778080567 | 12.22° C | 88% | 1038.7 hPa | 0 mm | - | 54 W/m² | - |
| 1778080264 | 12.22° C | 87% | 1039.2 hPa | 1.78 mm | - | 36 W/m² | - |
| 1778079960 | 12.78° C | 86% | 1039.4 hPa | 1.78 mm | - | 24 W/m² | - |
| 1778079657 | 12.78° C | 84% | 1039.4 hPa | 0 mm | - | 26 W/m² | - |
| 1778079354 | 12.78° C | 83% | 1040.4 hPa | 0 mm | - | 6 W/m² | - |
| 1778079051 | 12.78° C | 82% | 1040.2 hPa | 0 mm | - | 14 W/m² | - |
| 1778078748 | 12.78° C | 82% | 1039.9 hPa | 0 mm | - | 15 W/m² | - |
* Rain latest hour (hover to see other rain measurements)
** Current wind speed in m/s (hover to see current wind gust speed)